Weather History for EGPH - August, 2013

Change the Weather History Date:

Monday, August 12, 2013

  Actual Average Record
Temperature  
Mean Temperature 56 °F -  
Max Temperature 64 °F 63 °F 77 °F (1997)
Min Temperature 48 °F 49 °F 41 °F (1999)
Degree Days  
Heating Degree Days 9    
Growing Degree Days 6 (Base 50)    
Moisture  
Dew Point 49 °F    
Average Humidity 74    
Maximum Humidity 94    
Minimum Humidity 52    
Precipitation  
Precipitation 0.00 in 0.09 in - ()
Sea Level Pressure  
Sea Level Pressure 29.90 in    
Wind  
Wind Speed 9 mph ()    
Max Wind Speed 16 mph    
Max Gust Speed -    
Visibility 6.2 miles    
Events Rain    
Averages and records for this station are not official NWS values.
T = Trace of Precipitation, MM = Missing Value Source: Averaged Metar Reports

Daily Weather History Graph

Daily Weather History Graph

Search for Another Location

Airport or City:

Trip Planner

Search our weather history database for the weather conditions in past years. The results will help you decide how hot, cold, wet, or windy it might be!

Date:

Astronomy

Aug. 12, 2013 Rise Set
Actual Time 5:38 AM BST 8:56 PM BST
Civil Twilight 4:54 AM BST 9:40 PM BST
Nautical Twilight 3:53 AM BST 10:40 PM BST
Astronomical Twilight 2:17 AM BST 12:12 AM BST
Moon 12:28 PM BST (8/12) 10:22 PM BST (8/12)
Length of Visible Light 16h 46m
Length of Day
15h 17m
Waxing Crescent, 29% of the Moon is Illuminated
Aug 12
Waxing Crescent
Aug 14
First Quarter
Aug 21
Full
Aug 28
Last Quarter
Sep 5
New

Hourly Weather History & Observations

Time (BST) Temp. Dew Point Humidity Pressure Visibility Wind Dir Wind Speed Gust Speed Precip Events Conditions
12:20 AM 51.8 °F 50.0 °F 94% 29.86 in 6.2 mi WSW 10.4 mph - N/A   Partly Cloudy
12:50 AM 53.6 °F 50.0 °F 88% 29.86 in 6.2 mi WSW 10.4 mph - N/A   Mostly Cloudy
1:20 AM 53.6 °F 50.0 °F 88% 29.86 in 6.2 mi WSW 11.5 mph - N/A   Mostly Cloudy
1:50 AM 53.6 °F 50.0 °F 88% 29.86 in 6.2 mi WSW 10.4 mph - N/A   Mostly Cloudy
2:20 AM 51.8 °F 50.0 °F 94% 29.86 in 6.2 mi WSW 12.7 mph - N/A   Partly Cloudy
2:50 AM 51.8 °F 48.2 °F 88% 29.86 in - WSW 11.5 mph - N/A   Clear
3:20 AM 50.0 °F 48.2 °F 94% 29.86 in 6.2 mi WSW 5.8 mph - N/A   Scattered Clouds
3:50 AM 48.2 °F 46.4 °F 93% 29.86 in - WSW 6.9 mph - N/A   Clear
4:20 AM 51.8 °F 50.0 °F 94% 29.83 in 6.2 mi WSW 10.4 mph - N/A   Scattered Clouds
4:50 AM 51.8 °F 48.2 °F 88% 29.83 in 6.2 mi West 8.1 mph - N/A   Partly Cloudy
5:20 AM 51.8 °F 50.0 °F 94% 29.83 in 6.2 mi WSW 10.4 mph - N/A Rain Light Rain
5:50 AM 51.8 °F 50.0 °F 94% 29.83 in 6.2 mi WSW 8.1 mph - N/A   Scattered Clouds
6:20 AM 51.8 °F 50.0 °F 94% 29.83 in 6.2 mi WSW 10.4 mph - N/A   Partly Cloudy
6:50 AM 53.6 °F 50.0 °F 88% 29.83 in 6.2 mi WSW 10.4 mph - N/A   Partly Cloudy
7:20 AM 53.6 °F 51.8 °F 94% 29.83 in 6.2 mi WSW 8.1 mph - N/A   Partly Cloudy
7:50 AM 55.4 °F 51.8 °F 88% 29.86 in 6.2 mi WSW 9.2 mph - N/A   Partly Cloudy
8:20 AM 55.4 °F 51.8 °F 88% 29.86 in 6.2 mi West 9.2 mph - N/A   Partly Cloudy
8:50 AM 57.2 °F 51.8 °F 82% 29.86 in 6.2 mi West 9.2 mph - N/A   Scattered Clouds
9:20 AM 57.2 °F 51.8 °F 82% 29.86 in 6.2 mi West 8.1 mph - N/A   Scattered Clouds
9:50 AM 57.2 °F 51.8 °F 82% 29.89 in 6.2 mi West 9.2 mph - N/A   Scattered Clouds
10:20 AM 59.0 °F 51.8 °F 77% 29.89 in 6.2 mi West 9.2 mph - N/A   Scattered Clouds
10:50 AM 59.0 °F 50.0 °F 72% 29.89 in 6.2 mi West 9.2 mph - N/A   Scattered Clouds
11:20 AM 60.8 °F 48.2 °F 63% 29.89 in 6.2 mi West 10.4 mph - N/A   Scattered Clouds
11:50 AM 62.6 °F 48.2 °F 59% 29.89 in 6.2 mi West 10.4 mph - N/A   Partly Cloudy
12:20 PM 62.6 °F 46.4 °F 55% 29.89 in 6.2 mi West 11.5 mph - N/A   Mostly Cloudy
12:50 PM 62.6 °F 46.4 °F 55% 29.89 in 6.2 mi West 11.5 mph - N/A   Mostly Cloudy
1:20 PM 64.4 °F 48.2 °F 56% 29.89 in 6.2 mi WNW 10.4 mph - N/A   Mostly Cloudy
1:50 PM 64.4 °F 46.4 °F 52% 29.89 in 6.2 mi West 11.5 mph - N/A   Mostly Cloudy
2:20 PM 64.4 °F 48.2 °F 56% 29.89 in 6.2 mi West 12.7 mph - N/A   Scattered Clouds
2:50 PM 64.4 °F 48.2 °F 56% 29.89 in 6.2 mi West 10.4 mph - N/A   Partly Cloudy
3:20 PM 64.4 °F 48.2 °F 56% 29.89 in 6.2 mi West 13.8 mph - N/A   Scattered Clouds
3:50 PM 64.4 °F 48.2 °F 56% 29.89 in 6.2 mi West 16.1 mph - N/A   Partly Cloudy
4:20 PM 64.4 °F 48.2 °F 56% 29.89 in 6.2 mi West 16.1 mph - N/A   Scattered Clouds
4:50 PM 64.4 °F 48.2 °F 56% 29.92 in 6.2 mi West 12.7 mph - N/A   Scattered Clouds
5:20 PM 62.6 °F 48.2 °F 59% 29.92 in 6.2 mi West 12.7 mph - N/A   Scattered Clouds
5:50 PM 60.8 °F 46.4 °F 59% 29.92 in 6.2 mi West 12.7 mph - N/A   Partly Cloudy
6:20 PM 62.6 °F 48.2 °F 59% 29.92 in 6.2 mi West 11.5 mph - N/A   Partly Cloudy
6:50 PM 62.6 °F 46.4 °F 55% 29.92 in 6.2 mi WNW 11.5 mph - N/A   Partly Cloudy
7:20 PM 60.8 °F 46.4 °F 59% 29.95 in 6.2 mi West 12.7 mph - N/A   Partly Cloudy
7:50 PM 60.8 °F 46.4 °F 59% 29.95 in 6.2 mi West 10.4 mph - N/A   Partly Cloudy
8:20 PM 59.0 °F 46.4 °F 63% 29.95 in 6.2 mi West 9.2 mph - N/A   Partly Cloudy
8:50 PM 57.2 °F 46.4 °F 67% 29.98 in 6.2 mi West 8.1 mph - N/A   Partly Cloudy
9:20 PM 57.2 °F 48.2 °F 72% 29.98 in - West 8.1 mph - N/A   Clear
9:50 PM 57.2 °F 48.2 °F 72% 29.98 in - West 6.9 mph - N/A   Clear
10:20 PM 55.4 °F 48.2 °F 77% 30.01 in 6.2 mi West 9.2 mph - N/A   Unknown
10:50 PM 55.4 °F 48.2 °F 77% 30.01 in 6.2 mi WSW 6.9 mph - N/A   Unknown
11:20 PM 55.4 °F 48.2 °F 77% 30.01 in - West 6.9 mph - N/A   Clear
11:50 PM 55.4 °F 48.2 °F 77% 30.01 in - WSW 8.1 mph - N/A   Clear